Weather History for Gulkana, AK

Change the Weather History Date:

Saturday, September 22, 2012

  Actual Average Record
Temperature  
Mean Temperature 54 °F -  
Max Temperature 66 °F 49 °F 66 °F (2012)
Min Temperature 43 °F 29 °F 8 °F (1992)
Degree Days  
Heating Degree Days 10    
Growing Degree Days 4 (Base 50)    
Moisture  
Dew Point 42 °F    
Average Humidity 66    
Maximum Humidity 93    
Minimum Humidity 31    
Precipitation  
Precipitation 0.00 in - - ()
Sea Level Pressure  
Sea Level Pressure 29.58 in    
Wind  
Wind Speed 6 mph (SE)    
Max Wind Speed 14 mph    
Max Gust Speed 23 mph    
Visibility 10 miles    
Events      
Averages and records for this station are not official NWS values.
T = Trace of Precipitation, MM = Missing Value Source: NWS Daily Summary

Daily Weather History Graph

Daily Weather History Graph

Search for Another Location

Airport:

Trip Planner

Search our weather history database for the weather conditions in past years. The results will help you decide how hot, cold, wet, or windy it might be!

Date:

Astronomy

Sep. 22, 2012 Rise Set
Actual Time 7:27 AM AKDT 7:39 PM AKDT
Civil Twilight 6:42 AM AKDT 8:24 PM AKDT
Nautical Twilight 5:48 AM AKDT 9:17 PM AKDT
Astronomical Twilight 4:48 AM AKDT 10:17 PM AKDT
Moon 4:47 PM AKDT 11:03 PM AKDT
Length of Visible Light 13h 41m
Length of Day
12h 12m
Waxing Crescent, 50% of the Moon is Illuminated
Sep 22
Waxing Crescent
Sep 29
Full
Oct 7
Last Quarter
Oct 15
New
Oct 21
First Quarter

Hourly Weather History & Observations

Time (AKDT) Temp. Windchill Dew Point Humidity Pressure Visibility Wind Dir Wind Speed Gust Speed Precip Events Conditions
12:53 AM 52.0 °F - 46.9 °F 83% 29.74 in 10.0 mi South 9.2 mph - N/A   Mostly Cloudy
1:53 AM 53.1 °F - 46.9 °F 80% 29.73 in 10.0 mi SE 10.4 mph - N/A   Mostly Cloudy
2:53 AM 51.1 °F - 46.0 °F 83% 29.71 in 10.0 mi ESE 6.9 mph - N/A   Partly Cloudy
3:53 AM 48.0 °F - 45.0 °F 89% 29.69 in 10.0 mi SE 3.5 mph - N/A   Partly Cloudy
4:53 AM 48.0 °F - 45.0 °F 89% 29.67 in 10.0 mi East 4.6 mph - N/A   Scattered Clouds
5:53 AM 43.0 °F - 41.0 °F 93% 29.66 in 10.0 mi Calm Calm - N/A   Clear
6:00 AM 44.6 °F 43.1 °F 42.8 °F 93% 29.64 in 10.0 mi SSE 3.5 mph - N/A   Mostly Cloudy
6:53 AM 51.1 °F - 45.0 °F 80% 29.63 in 10.0 mi SSE 10.4 mph - 0.00 in   Overcast
7:53 AM 50.0 °F - 44.1 °F 80% 29.62 in 10.0 mi South 8.1 mph - N/A   Overcast
8:53 AM 53.1 °F - 44.1 °F 71% 29.62 in 10.0 mi ESE 8.1 mph - N/A   Overcast
9:53 AM 55.9 °F - 44.1 °F 64% 29.60 in 10.0 mi Calm Calm - N/A   Overcast
10:53 AM 55.9 °F - 45.0 °F 67% 29.58 in 10.0 mi Calm Calm - N/A   Overcast
11:53 AM 57.0 °F - 46.0 °F 67% 29.57 in 10.0 mi Calm Calm - N/A   Overcast
12:53 PM 62.1 °F - 44.1 °F 52% 29.56 in 10.0 mi SSE 8.1 mph - N/A   Overcast
1:53 PM 64.9 °F - 41.0 °F 42% 29.53 in 10.0 mi SSE 13.8 mph 23.0 mph N/A   Overcast
2:53 PM 63.0 °F - 41.0 °F 45% 29.52 in 10.0 mi South 8.1 mph - N/A   Overcast
3:53 PM 62.1 °F - 39.0 °F 43% 29.52 in 10.0 mi South 12.7 mph 20.7 mph N/A   Overcast
4:53 PM 60.1 °F - 39.9 °F 47% 29.52 in 10.0 mi SSW 8.1 mph - N/A   Overcast
5:53 PM 59.0 °F - 39.0 °F 48% 29.53 in 10.0 mi South 6.9 mph - N/A   Overcast
6:53 PM 55.9 °F - 39.9 °F 55% 29.51 in 10.0 mi SSE 4.6 mph - N/A   Overcast
7:53 PM 55.0 °F - 39.9 °F 57% 29.51 in 10.0 mi East 4.6 mph - N/A   Mostly Cloudy
8:53 PM 52.0 °F - 39.9 °F 63% 29.49 in 10.0 mi Calm Calm - N/A   Mostly Cloudy
9:25 PM 53.6 °F - 39.2 °F 58% 29.49 in 10.0 mi East 3.5 mph - N/A   Mostly Cloudy
9:53 PM 52.0 °F - 39.9 °F 63% 29.50 in 10.0 mi ESE 5.8 mph - N/A   Overcast
10:53 PM 52.0 °F - 39.9 °F 63% 29.50 in 10.0 mi SE 6.9 mph - N/A   Scattered Clouds
11:53 PM 50.0 °F - 39.9 °F 68% 29.51 in 10.0 mi SE 3.5 mph - N/A   Mostly Cloudy